Weather History for V.C. Bird, Antigua

Change the Weather History Date:

Friday, November 30, 2012

  Actual Average Record
Temperature  
Mean Temperature 79 °F -  
Max Temperature 85 °F 82 °F 86 °F (1997)
Min Temperature 73 °F 73 °F 69 °F (2001)
Cooling Degree Days 14    
Growing Degree Days 29 (Base 50)    
Moisture  
Dew Point 70 °F    
Average Humidity 78    
Maximum Humidity 94    
Minimum Humidity 61    
Precipitation  
Precipitation 0.59 in - - ()
Sea Level Pressure  
Sea Level Pressure 29.91 in    
Wind  
Wind Speed 5 mph ()    
Max Wind Speed 12 mph    
Max Gust Speed 22 mph    
Visibility 9.3 miles    
Events Rain    
Averages and records for this station are not official NWS values.
T = Trace of Precipitation, MM = Missing Value Source: Averaged Metar Reports

Daily Weather History Graph

Daily Weather History Graph

Search for Another Location

Airport:

Trip Planner

Search our weather history database for the weather conditions in past years. The results will help you decide how hot, cold, wet, or windy it might be!

Date:

Astronomy

Nov. 30, 2012 Rise Set
Actual Time 6:20 AM AST 5:31 PM AST
Civil Twilight 5:57 AM AST 5:54 PM AST
Nautical Twilight 5:30 AM AST 6:21 PM AST
Astronomical Twilight 5:03 AM AST 6:48 PM AST
Moon 7:20 PM AST (11/30) 7:49 AM AST (11/30)
Length of Visible Light 11h 57m
Length of Day
11h 11m
Waning Gibbous, 96% of the Moon is Illuminated
Nov 30
Waning Gibbous
Dec 6
Last Quarter
Dec 13
New
Dec 20
First Quarter
Dec 28
Full

Hourly Weather History & Observations

Time (AST) Temp. Heat Index Dew Point Humidity Pressure Visibility Wind Dir Wind Speed Gust Speed Precip Events Conditions
1:00 AM 77.0 °F - 69.8 °F 78% 29.95 in 6.2 mi SE 10.4 mph - N/A Rain Light Rain
2:00 AM 76 °F - 71 °F 80% 29.93 in 16 mi ESE 6.9 mph - - Rain Light Rain
2:00 AM 77.0 °F - 71.6 °F 83% 29.92 in 6.2 mi ESE 6.9 mph - N/A Rain Light Rain
3:00 AM 75.2 °F - 69.8 °F 83% 29.89 in 6.2 mi Calm Calm - N/A   Mostly Cloudy
4:00 AM 77.0 °F - 69.8 °F 78% 29.89 in 6.2 mi Calm Calm - N/A   Mostly Cloudy
5:00 AM 75.2 °F - 69.8 °F 83% 29.89 in 6.2 mi Variable 3.5 mph - N/A   Mostly Cloudy
6:00 AM 75.2 °F - 69.8 °F 83% 29.89 in 6.2 mi ENE 6.9 mph - N/A   Mostly Cloudy
7:00 AM 75.2 °F - 68.0 °F 78% 29.92 in 6.2 mi Variable 1.2 mph - N/A   Mostly Cloudy
8:00 AM 79 °F - 71 °F 71% 29.94 in 19 mi 2.3 mph - -   Partly Cloudy
8:00 AM 78.8 °F - 71.6 °F 78% 29.92 in 6.2 mi Variable 2.3 mph - N/A   Mostly Cloudy
5:00 PM 81 °F - 70 °F 61% 29.90 in 19 mi ESE 9.2 mph - -   Scattered Clouds
5:00 PM 80.6 °F 83.9 °F 69.8 °F 70% 29.89 in 6.2 mi ESE 9.2 mph - N/A   Mostly Cloudy
6:00 PM 80.6 °F 83.9 °F 69.8 °F 70% 29.89 in 6.2 mi ESE 10.4 mph - N/A   Mostly Cloudy
7:00 PM 78.8 °F - 69.8 °F 74% 29.92 in 6.2 mi ESE 11.5 mph - N/A   Partly Cloudy
8:00 PM 80 °F - 70 °F 64% 29.93 in 19 mi East 8.1 mph - -   Partly Cloudy
8:00 PM 80.6 °F 83.9 °F 69.8 °F 70% 29.92 in 6.2 mi East 8.1 mph - N/A   Scattered Clouds
9:00 PM 75.2 °F - 73.4 °F 94% 29.92 in 6.2 mi SW 4.6 mph 21.9 mph N/A Rain Rain Showers
10:00 PM 73.4 °F - 69.8 °F 88% 29.92 in 6.2 mi Variable 2.3 mph - N/A   Mostly Cloudy
11:00 PM 76 °F - 71 °F 81% 29.93 in 19 mi East 6.9 mph - -   Mostly Cloudy
11:00 PM 75.2 °F - 71.6 °F 89% 29.92 in 6.2 mi East 6.9 mph - N/A   Mostly Cloudy